* Astronomy

Members Login
Post Info TOPIC: TNO 2006 BR284 AND 2006 JZ81


L

Posts: 131433
Date:
TNO 2006 BR284 AND 2006 JZ81
Permalink  
 


Orbital elements:
2006 BR284
Epoch 2011 Aug. 27.0 TT = JDT 2455800.5                 MPC
M  15.42813              (2000.0)            P               Q
n   0.00339812     Peri.  100.38021     -0.43077033     -0.90244618
a  43.8171144      Node    15.13958     +0.81988875     -0.39379194
e   0.0402324      Incl.    1.15735     +0.37711982     -0.17469632
P 290              H    6.9           G   0.15           U   4
2006 JZ81
Epoch 2011 Aug. 27.0 TT = JDT 2455800.5                 MPC
M   2.65105              (2000.0)            P               Q
n   0.00331650     Peri.  182.08594     -0.78281717     +0.62116200
a  44.5331227      Node    36.39865     -0.57000293     -0.69210186
e   0.0770286      Incl.    3.55657     -0.24958753     -0.36763131
P 297              H    6.7           G   0.15           U   3

MPEC 2011 - N35



__________________
Page 1 of 1  sorted by
Quick Reply

Please log in to post quick replies.



Create your own FREE Forum
Report Abuse
Powered by ActiveBoard